Location: ??????????
(44.2167°N, 135.5333°E)
Time: 15:23:05
(UTC+00:00)

SL-16 R/B - Pass Details

Date: 15 June 2025
Orbit: 841 x 847 km, 71.0° (Epoch: 15 July)

Event Time Altitude Azimuth Distance (km) Brightness Sun altitude
Rises 14:32:22 0° 316° (NW) 3,406 6.2 -22.2°
Reaches altitude 10° 14:36:11 10° 290° (WNW) 2,466 4.9 -22.3°
Maximum altitude 14:38:41 13° 264° (W) 2,244 4.4 -22.3°
Enters shadow 14:40:24 12° 244° (WSW) 2,349 4.3 -22.3°
